sat.trackr.live / text

‹ back to catalog

SKYBEE-A02

NORAD 64544 · 2025-135S

PAYLOAD ACTIVE UNKNOWN

§ Identity

Operator
Country
GER
Launch date
2025-06-23
Launch site
AFWTR
Launch vehicle
Mass (kg)
RCS (m²)

External: N2YO · Heavens-Above · Gunter

§ Orbital elements

Epoch: 2026-05-25T03:51:25.204896Z

Period
94.74 min
Inclination
97.4705°
Eccentricity
0.0001278
Mean motion
15.19957633 rev/d
Perigee alt
505.1 km
Apogee alt
506.8 km
Semi-major
6,884.1 km
B*
1.1668e-4
RAAN
260.2141°
Arg perigee
171.5470°
Mean anomaly
188.5787°
Rev number
5,133

§ Raw data

SKYBEE-A021 64544U 25135S   26145.16070839  .00002441  00000+0  11668-3 0  99962 64544  97.4705 260.2141 0001278 171.5470 188.5787 15.19957633 51331

JSON: /api/v1/satellites/64544 · /tle

For live sub-satellite position, see the globe view (requires WebGL).

§ Visibility from observer

Set your observer location to see the next 7 days of passes ≥ 10°. The values pass through the URL so the page stays shareable.

No JS? Fill the form by hand. The geolocation button needs JavaScript.

§ Radio — SatNOGS DB

ModeDescriptionDownlinkUplink
FM Mode S - Transmitter 2.228 GHz
GMSK Mode U - GMSK2k4 401.050 MHz
FM Mode X - Transmitter 8.330 GHz
FM S-band telemetry 2.256 GHz

4 transmitters · refreshed weekly from db.satnogs.org